This demonstration page uses our WeatherBlox Daily Observations layout. Learn more.

Left ArrowRight Arrow

38.83388, -104.82136

Hourly Observations for April 3, 2017

Temp ( °F °C ) Dew Point ( °F °C ) Humidity (%) Winds ( mph kmh ) Pressure ( in mb ) Visibility ( mi km ) Precip ( " mm )
12:58 am 00:58 Mostly Cloudy 40 4.7 33 0.4 74 74 Calm 29.38 995 10 16 0.00 0.00
1:58 am 01:58 Partly Cloudy 40 4.6 33 0.3 74 74 WNW 7 11 29.36 994 10 16 0.00 0.00
2:58 am 02:58 Partly Cloudy 41 5.1 31 -0.4 68 68 NW 5 7 29.36 994 10 16 0.00 0.00
3:58 am 03:58 Clear 38 3.6 32 -0.2 76 76 NW 9 15 29.37 995 10 16 0.00 0.00
4:58 am 04:58 Clear 40 4.5 28 -2.2 62 62 WNW 9 15 29.37 995 10 16 0.00 0.00
5:58 am 05:58 Clear 39 3.8 27 -3 62 62 NW 9 15 29.40 996 10 16 0.00 0.00
6:58 am 06:58 Sunny 38 3.6 24 -4.4 56 56 NW 8 13 29.42 996 10 16 0.00 0.00
7:58 am 07:58 Sunny 40 4.4 21 -5.9 48 48 NNW 8 13 29.44 997 10 16 0.00 0.00
8:58 am 08:58 Sunny 41 5.2 19 -7.1 41 41 N 8 13 29.42 996 10 16 0.00 0.00
9:58 am 09:58 Sunny 45 7 20 -6.4 38 38 NNE 7 11 29.42 996 10 16 0.00 0.00
10:58 am 10:58 Mostly Cloudy 46 7.7 19 -7.5 33 33 ESE 7 11 29.40 996 10 16 0.00 0.00
11:58 am 11:58 Mostly Cloudy 46 7.7 25 -3.7 45 45 S 8 13 29.40 996 10 16 0.00 0.00
12:58 pm 12:58 Mostly Cloudy 46 8 29 -1.5 51 51 SSE 9 15 29.40 996 10 16 0.00 0.00
1:58 pm 13:58 Mostly Cloudy 48 9.1 25 -3.9 40 40 ESE 14 22 29.36 994 10 16 0.00 0.00
2:58 pm 14:58 Mostly Cloudy 49 9.2 25 -4.1 39 39 ESE 17 28 29.35 994 10 16 0.00 0.00
3:58 pm 15:58 Mostly Cloudy 49 9.2 20 -6.7 32 32 E 6 9 29.36 994 10 16 0.00 0.00
4:58 pm 16:58 Mostly Cloudy 47 8.6 26 -3.2 44 44 E 7 11 29.32 993 10 16 0.00 0.00
5:58 pm 17:58 Cloudy 47 8.1 23 -4.9 40 40 SE 13 20 29.36 994 10 16 0.00 0.00
6:58 pm 18:58 Mostly Cloudy 43 6.2 23 -4.9 45 45 SSW 5 7 29.41 996 10 16 0.00 0.00
7:58 pm 19:58 Mostly Cloudy 41 4.8 22 -5.8 47 47 NNW 14 22 29.43 997 10 16 0.00 0.00
8:00 pm 20:00 Mostly Cloudy 41 5 21 -6 45 45 NW 13 20 29.65 1004 10 16 0.00 0.00
8:58 pm 20:58 Mostly Cloudy 40 4.3 21 -6 47 47 NNW 10 17 29.45 997 10 16 0.00 0.00
9:42 pm 21:42 Mostly Cloudy with Light Showers 36 2 30 -1 81 81 NE 15 24 29.80 1009 10 16 0.00 0.00
9:58 pm 21:58 Mostly Cloudy with Light Rain 33 0.8 31 -0.6 90 90 ENE 7 11 29.52 1000 10 16 0.00 0.00
10:08 pm 22:08 Cloudy with Light Rain/Snow 32 0 32 0 100 100 NNE 9 15 29.85 1011 3 4 0.00 0.00
10:23 pm 22:23 Mostly Cloudy with Snow 32 0 30 -1 93 93 NNE 9 15 29.85 1011 1 2 0.00 0.00
10:58 pm 22:58 Mostly Cloudy with Snow 31 -0.5 31 -0.7 99 99 N 10 17 29.51 999 3 5 0.01 0.25
11:58 pm 23:58 Cloudy with Snow 31 -0.4 30 -0.9 96 96 NW 13 20 29.49 999 3 5 0.00 0.00

Powered by AerisWeather